Zurück zum Katalog

ATLAS AGENA R/B(2)

AktivMEO
NORAD 15422·ROCKET BODY·🇺🇸 United States

Gestartet May 23, 1977 von Cape Canaveral Space Force Station

Loading…

Nächste Überflüge (nächste 24 Stunden)

TLE

AktuellSource: Space-Track

Epoche: Sep 14, 2026, 10:18 UTC

1 15422U 77038C   26257.42919015 -.00000017  00000-0  00000-0 0  9991
2 15422   6.1879 330.4811 1445229 182.3362 176.8009  1.02334944 27155

Verfolge ATLAS AGENA R/B(2) in Echtzeit mit AllMySat

Download on the App Store